Tracking 31027 objects as of 19-Jul-2025
HD Live streaming from Space Station
objects crossing your sky now

STARLINK-4362

Track STARLINK-4362 now!
10-day predictions
STARLINK-4362 is classified as:


NORAD ID: 53043
Int'l Code: 2022-077A
Perigee: 570.0 km
Apogee: 570.3 km
Inclination: 97.7 °
Period: 95.9 minutes
Semi major axis: 6941 km
RCS: Unknown
Launch date: July 11, 2022
Source: United States (US)
Launch site: AIR FORCE WESTERN TEST RANGE (AFWTR)
Your satellite tracking list
NOAA 16 DEB
Track 1 satellite(s)




NASA's NSSDC Master Catalog

Two Line Element Set (TLE):
1 53043U 22077A   25199.75964147 -.00000298  00000-0 -18594-4 0  9994
2 53043  97.6551  20.9148 0000185 101.8393 258.2852 15.01259641165821
Source of the keplerian elements: AFSPC